Preview of NWS' New Version of Forecast
This preview is not operational and should not be used for support decisions.

Regional Weather Roundup (RWR)

Issued by National Weather Service (NWS)

                            
000
ASUS43 KLSX 200107
RWRMO 

WEATHER SUMMARY FOR MISSOURI
NATIONAL WEATHER SERVICE SPRINGFIELD MO
800 PM CDT WED JUN 19 2019

NOTE: "FAIR" INDICATES FEW OR NO CLOUDS BELOW 12,000 FEET WITH NO
       SIGNIFICANT WEATHER AND/OR OBSTRUCTIONS TO VISIBILITY.
       CURRENT SKY AND/OR WEATHER CONDITIONS ARE NOT AVAILABLE FOR
       CHILLICOTHE AND FARMINGTON.

MOZ001>031-035>038-043-044-053-054-200200-
...NORTHERN AND WESTERN MISSOURI...
  
CITY           SKY/WX    TMP DP  RH WIND       PRES   REMARKS
KANSAS CTY INT MOCLDY    73  64  73 N6        29.71S                  
KANSAS C DTWN  MOCLDY    75  63  66 N8        29.70R                  
LEE'S SUMMIT   CLEAR     73  62  68 N8        29.72R                  
ST JOSEPH      PTCLDY    73  63  70 N6        29.71S                  
CHILLICOTHE      N/A     66  65  96 CALM      29.72R                  
KIRKSVILLE     CLOUDY    67  64  90 N9        29.69R                  
     
$$
MOZ066>068-077>081-088>096-101>105-200200-
...SOUTHWEST MISSOURI...
  
CITY           SKY/WX    TMP DP  RH WIND       PRES   REMARKS
SPRINGFIELD    PTCLDY    76  65  68 W9        29.70S                  
JOPLIN         PTCLDY    76  66  71 NW9       29.72R                  
BRANSON        PTCLDY    77  66  69 CALM      29.73R                  
               
$$
MOZ032>034-039>042-045>050-055>058-069>072-200200-
...CENTRAL MISSOURI...  
  
CITY           SKY/WX    TMP DP  RH WIND       PRES   REMARKS
COLUMBIA       PTCLDY    73  65  75 NW13      29.66R                  
ROLLA          MOCLDY    73  66  78 W7        29.67S                  
SEDALIA        CLEAR     70  64  81 NW9       29.69R                  
WHITEMAN AFB   PTCLDY    73  64  74 NW10      29.65R                  
WARRENSBURG    CLEAR     72  63  73 CALM      29.69S                  
OSAGE BEACH    MOCLDY    71  68  90 W5        29.68S                  
               
$$
MOZ051-052-059>065-200200-
...EAST CENTRAL MISSOURI...
  
CITY           SKY/WX    TMP DP  RH WIND       PRES   REMARKS
ST LOUIS INTL  MOCLDY    77  64  64 W9        29.62F                  
SPIRIT OF STL  MOCLDY    77  68  73 SW6       29.61F                  
ST CHARLES       N/A    N/A N/A N/A MISG      29.60F                  
                   
$$
MOZ072>076-082>087-097>100-106>115-200200-
...SOUTH CENTRAL AND SOUTHEAST MISSOURI...
  
CITY           SKY/WX    TMP DP  RH WIND       PRES   REMARKS
CAPE GIRARDEAU FAIR      76  70  82 SE6       29.63F                  
FARMINGTON     CLOUDY    76  67  73 W3        29.66F                  
POPLAR BLUFF   MOCLDY    70  70 100 MISG      29.66R THUNDER FOG      
WEST PLAINS    MOCLDY    77  69  76 CALM      29.71R                  
                                       
$$